Asheville, NC

2:27 AM EDT on April 27, 2017 (GMT -0400)
Asheville Regional

Weather History for KAVL - January, 2008

Change the Weather History Date:

Friday, January 11, 2008

  Actual Average Record
Temperature  
Mean Temperature 49 °F 37 °F  
Max Temperature 58 °F 47 °F 71 °F (1890)
Min Temperature 39 °F 27 °F -6 °F (1982)
Degree Days  
Heating Degree Days 16 28  
Month to date heating degree days 277 308  
Since 1 July heating degree days 1735 1969  
Cooling Degree Days 0 0  
Month to date cooling degree days 0 0  
Year to date cooling degree days 0 0  
Moisture  
Dew Point 45 °F    
Average Humidity 77    
Maximum Humidity 100    
Minimum Humidity 54    
Precipitation  
Precipitation 0.39 in 0.12 in 2.16 in (1908)
Month to date precipitation 1.06 1.24  
Year to date precipitation 1.06 1.24  
Snow  
Snow 0.00 in 0.10 in 7.00 in (1918)
Month to date snowfall 0.7 1.3  
Since 1 July snowfall 0.8 2.3  
Snow Depth -    
Sea Level Pressure  
Sea Level Pressure 29.77 in    
Wind  
Wind Speed 12 mph (WSW)    
Max Wind Speed 21 mph    
Max Gust Speed 24 mph    
Visibility 10 miles    
Events Rain    
T = Trace of Precipitation, MM = Missing Value Source: NWS Daily Summary

Daily Weather History Graph

Daily Weather History Graph

Search for Another Location

Airport or City:

Trip Planner

Search our weather history database for the weather conditions in past years. The results will help you decide how hot, cold, wet, or windy it might be!

Date:

Astronomy

Jan. 11, 2008 Rise Set
Actual Time 7:39 AM EST 5:36 PM EST
Civil Twilight 7:11 AM EST 6:04 PM EST
Nautical Twilight 6:40 AM EST 6:35 PM EST
Astronomical Twilight 6:09 AM EST 7:06 PM EST
Moon 9:44 AM EST (1/11) 9:01 PM EST (1/11)
Length of Visible Light 10h 52m
Length of Day
9h 56m
Waxing Crescent, 11% of the Moon is Illuminated
Jan 11
Waxing Crescent
Jan 15
First Quarter
Jan 22
Full
Jan 30
Last Quarter
Feb 6
New

Hourly Weather History & Observations

Time (EST) Temp. Windchill Dew Point Humidity Pressure Visibility Wind Dir Wind Speed Gust Speed Precip Events Conditions
12:54 AM 54.0 °F - 53.1 °F 97% 29.77 in 5.0 mi South 10.4 mph - 0.20 in Rain Light Rain
1:35 AM 53.6 °F - 51.8 °F 94% 29.78 in 7.0 mi South 12.7 mph 21.9 mph 0.06 in Rain Rain
1:54 AM 53.1 °F - 51.1 °F 93% 29.75 in 7.0 mi South 13.8 mph - 0.09 in Rain Rain
2:24 AM 53.6 °F - 51.8 °F 94% 29.76 in 10.0 mi South 8.1 mph - 0.01 in Rain Light Rain
2:54 AM 53.1 °F - 52.0 °F 96% 29.74 in 4.0 mi South 13.8 mph - 0.05 in Rain Heavy Rain
3:13 AM 53.6 °F - 51.8 °F 94% 29.75 in 10.0 mi South 9.2 mph - 0.04 in Rain Light Rain
3:22 AM 53.6 °F - 51.8 °F 94% 29.74 in 10.0 mi South 9.2 mph - 0.04 in Rain Light Rain
3:54 AM 53.1 °F - 52.0 °F 96% 29.70 in 10.0 mi South 9.2 mph - 0.07 in Rain Light Rain
4:54 AM 53.1 °F - 52.0 °F 96% 29.68 in 10.0 mi South 12.7 mph - 0.00 in   Overcast
5:01 AM 53.6 °F - 51.8 °F 94% 29.70 in 10.0 mi SSW 15.0 mph 21.9 mph N/A   Mostly Cloudy
5:20 AM 53.6 °F - 51.8 °F 94% 29.71 in 10.0 mi SSW 12.7 mph - N/A   Overcast
5:27 AM 53.6 °F - 51.8 °F 94% 29.72 in 10.0 mi SSW 13.8 mph 19.6 mph N/A   Overcast
5:54 AM 53.1 °F - 52.0 °F 96% 29.70 in 10.0 mi SSW 13.8 mph 20.7 mph N/A   Overcast
6:54 AM 53.1 °F - 52.0 °F 96% 29.72 in 10.0 mi SSW 5.8 mph - 0.00 in   Overcast
7:07 AM 53.6 °F - 51.8 °F 94% 29.74 in 10.0 mi SSW 10.4 mph - N/A   Overcast
7:26 AM 53.6 °F - 51.8 °F 94% 29.74 in 10.0 mi SSW 11.5 mph 20.7 mph N/A   Mostly Cloudy
7:46 AM 53.6 °F - 50.0 °F 88% 29.75 in 10.0 mi South 13.8 mph 19.6 mph N/A   Partly Cloudy
7:54 AM 53.1 °F - 50.0 °F 89% 29.73 in 10.0 mi SSW 12.7 mph 19.6 mph N/A   Partly Cloudy
8:54 AM 54.0 °F - 50.0 °F 86% 29.75 in 10.0 mi SSW 6.9 mph - N/A   Clear
9:54 AM 57.0 °F - 48.0 °F 72% 29.76 in 10.0 mi Calm Calm - N/A   Clear
10:54 AM 53.1 °F - 43.0 °F 69% 29.78 in 10.0 mi North 11.5 mph - N/A   Clear
11:54 AM 51.1 °F - 39.9 °F 66% 29.77 in 10.0 mi North 15.0 mph - N/A   Clear
12:54 PM 52.0 °F - 39.0 °F 61% 29.76 in 10.0 mi NNW 13.8 mph - N/A   Clear
1:54 PM 53.1 °F - 39.0 °F 59% 29.74 in 10.0 mi North 12.7 mph - N/A   Clear
2:54 PM 52.0 °F - 37.9 °F 59% 29.75 in 10.0 mi NNW 16.1 mph - N/A   Clear
3:54 PM 51.1 °F - 36.0 °F 56% 29.78 in 10.0 mi NNW 15.0 mph - N/A   Clear
4:54 PM 48.0 °F - 36.0 °F 63% 29.79 in 10.0 mi NNW 17.3 mph - N/A   Clear
5:54 PM 46.0 °F 40.6 °F 35.1 °F 66% 29.82 in 10.0 mi NNW 11.5 mph - N/A   Clear
6:54 PM 43.0 °F 36.4 °F 35.1 °F 74% 29.84 in 10.0 mi NNW 12.7 mph - N/A   Clear
7:54 PM 42.1 °F 36.1 °F 34.0 °F 73% 29.86 in 10.0 mi NNW 10.4 mph - N/A   Clear
8:54 PM 42.1 °F 34.2 °F 34.0 °F 73% 29.87 in 10.0 mi NNW 16.1 mph - N/A   Clear
9:54 PM 41.0 °F 34.3 °F 34.0 °F 76% 29.88 in 10.0 mi NNW 11.5 mph - N/A   Clear
10:54 PM 39.9 °F 32.5 °F 33.1 °F 77% 29.88 in 10.0 mi NNW 12.7 mph - N/A   Clear
11:54 PM 39.0 °F 31.8 °F 33.1 °F 79% 29.90 in 10.0 mi North 11.5 mph - N/A   Clear